Location: Unspecified
(52.4292°N, 19.3359°E)
Time: 20:17:23
(UTC+02:00)

Altair - Pass Details

Date: 19 May 2024
Orbit: 1502 x 1682 km, 47.2° (Epoch: 12 June)

Event Time Altitude Azimuth Distance (km) Brightness Sun altitude
Rises 09:26:44 0° 175° (S) 4,818 10.4 40.7°
Reaches altitude 10° 09:31:52 10° 152° (SSE) 3,873 10.4 41.5°
Maximum altitude 09:36:25 14° 124° (SE) 3,572 10.7 42.1°
Drops below altitude 10° 09:41:00 10° 97° (E) 3,928 10.6 42.7°
Sets 09:46:14 0° 75° (ENE) 4,936 10.7 43.4°
